Hourly Weather Roundup
Issued by NWS Central Illinois

Home | Current Version | Previous Version | Text Only | Print | Product List | Glossary On
Versions: 1 2 3 4 5 6 7 8 9 10 11 12 13 14 15 16 17 18 19 20 21 22 23 24 25 26 27 28 29 30 31 32 33 34 35 36 37 38 39 40 41 42 43 44 45 46 47 48 49 50
000
NZUS43 KILX 190710
HWRILX

AREA WEATHER ROUNDUP
NATIONAL WEATHER SERVICE, LINCOLN IL
200 AM CDT FRI SEP 19 2014


CITY           SKY/WX    TMP DP  RH WIND       PRES   REMARKS
BLOOMINGTON    CLEAR     49  47  93 E5        30.15R
CHAMPAIGN      CLEAR     52  48  86 E7        30.14R
DECATUR        CLEAR     50  46  86 CALM      30.13R
FLORA          CLEAR     53  51  94 CALM      30.11S
GALESBURG      CLEAR     53  49  87 E5        30.11S
JACKSONVILLE   CLEAR     52  49  90 E5        30.11S
LACON          CLEAR     54  52  94 E5        30.13S FOG
LAWRENCEVILLE  CLEAR     53  51  93 NE5       30.11S
LITCHFIELD     CLEAR     54  51  91 E6        30.10S
$$


CITY           SKY/WX    TMP DP  RH WIND       PRES   REMARKS
LINCOLN        CLEAR     50  46  87 CALM      30.11S
MACOMB         CLEAR     47  47  99 NE5       30.13R
MATTOON        CLEAR     53  49  86 CALM      30.12R
MT CARMEL AP   CLEAR     54  52  94 CALM      30.10S
OLNEY-NOBLE AP CLEAR     54  50  87 CALM      30.11S
PARIS          CLEAR     49  48  97 CALM      30.15R
PEORIA         CLEAR     57  52  83 E8        30.13R
PONTIAC        CLEAR     54  54 100 CALM      30.14S FOG
RANTOUL        CLEAR     54  48  81 CALM      30.14F
ROBINSON       FOG       49  49  99 CALM      30.13S VSB 1/2
SPRINGFIELD    CLEAR     53  48  83 E3        30.11S
TAYLORVILLE    CLEAR     52  48  87 E6        30.11S
$$

...REGIONAL REPORTS...


CITY           SKY/WX    TMP DP  RH WIND       PRES   REMARKS
CHICAGO O`HARE CLEAR     56  54  93 N3        30.16S
KANKAKEE       CLEAR     52  51  99 NE3       30.15S FOG
MOLINE         CLEAR     53  49  86 E7        30.11F
MOUNT VERNON   CLEAR     55  50  82 N6        30.10S
PITTSFIELD     CLEAR     53  50  91 CALM      30.11S
QUINCY         CLEAR     57  50  77 E8        30.09S
ROCKFORD       FOG       53  52  96 SE9       30.17F VSB 1
$$


CITY           SKY/WX    TMP DP  RH WIND       PRES   REMARKS
BURLINGTON     CLEAR     56  49  77 E5        30.09S
CEDAR RAPIDS   CLEAR     52  50  93 SE6       30.08S
DES MOINES     PTCLDY    60  55  83 SE9       30.04S
KIRKSVILLE     CLEAR     55  51  86 SE6       30.07F
OTTUMWA        CLEAR     54  51  90 SE7       30.06S
ST LOUIS       CLEAR     61  54  77 E3        30.09R
$$


CITY           SKY/WX    TMP DP  RH WIND       PRES   REMARKS
TERRE HAUTE    CLEAR     51  48  89 CALM      30.13R
EVANSVILLE     CLEAR     58  51  78 N6        30.09R
INDIANAPOLIS   CLEAR     57  47  69 E9        30.14R
LAFAYETTE      CLEAR     51  48  89 E6        30.16R
MADISON        CLOUDY    51  50  96 SE9       30.14F FOG
MILWAUKEE      MOCLDY    52  49  89 CALM      30.17F
$$





USA.gov is the U.S. government's official web portal to all federal, state and local government web resources and services.